GLO1554 SBGR-SBSG

Flight info

Callsign GLO1554
Flight time 2h 54m
Altitude 37000
Route VUMEV UZ14 ENVOG UZ1 LODOT UZ72 TOGUN
Aircraft B738/M-SDFGIKLORWXY/LB1

Departure

Time 2026-05-06 22:43
Airport São Paulo/Guarulhos–Governor André Franco Montoro International Airport (SBGR)

Arrival

Time 2026-05-07 01:37
Airport Rio Grande do Norte/São Gonçalo do Amarante–Governador Aluízio Alves International Airport (SBSG)
Time Latitude Longitude Altitude Speed Heading
2026-05-06 22:14 -23.42818 -46.48352 2448 ft 0 kts 84°
2026-05-06 22:34 -23.42820 -46.48365 2448 ft 2 kts 73°
2026-05-06 22:34 -23.42824 -46.48380 2448 ft 2 kts 79°
2026-05-06 22:35 -23.42827 -46.48396 2447 ft 2 kts 77°
2026-05-06 22:35 -23.42830 -46.48412 2447 ft 2 kts 78°
2026-05-06 22:35 -23.42831 -46.48422 2447 ft 1 kts 112°
2026-05-06 22:35 -23.42825 -46.48429 2447 ft 1 kts 167°
2026-05-06 22:36 -23.42819 -46.48430 2447 ft 0 kts 187°
2026-05-06 22:36 -23.42815 -46.48429 2447 ft 0 kts 181°
2026-05-06 22:38 -23.42820 -46.48429 2447 ft 2 kts 180°
2026-05-06 22:38 -23.42851 -46.48430 2447 ft 6 kts 180°
2026-05-06 22:38 -23.42909 -46.48439 2447 ft 10 kts 199°
2026-05-06 22:39 -23.42990 -46.48451 2447 ft 12 kts 181°
2026-05-06 22:39 -23.43086 -46.48434 2448 ft 14 kts 163°
2026-05-06 22:39 -23.43189 -46.48401 2449 ft 16 kts 163°
2026-05-06 22:39 -23.43273 -46.48374 2451 ft 7 kts 163°
2026-05-06 22:40 -23.43321 -46.48359 2452 ft 7 kts 162°
2026-05-06 22:40 -23.43374 -46.48342 2453 ft 8 kts 164°
2026-05-06 22:40 -23.43419 -46.48309 2454 ft 6 kts 97°
2026-05-06 22:40 -23.43410 -46.48266 2455 ft 0 kts 72°
2026-05-06 22:41 -23.43408 -46.48259 2455 ft 8 kts 72°
2026-05-06 22:41 -23.43400 -46.48231 2455 ft 0 kts 72°
2026-05-06 22:42 -23.43343 -46.48016 2456 ft 63 kts 73°
2026-05-06 22:42 -23.43157 -46.47331 2456 ft 124 kts 73°
2026-05-06 22:42 -23.42858 -46.46225 2451 ft 175 kts 73°
2026-05-06 22:42 -23.42475 -46.44844 2735 ft 195 kts 74°
2026-05-06 22:43 -23.42103 -46.43464 3575 ft 190 kts 74°
2026-05-06 22:43 -23.41684 -46.42102 4189 ft 197 kts 71°
2026-05-06 22:43 -23.41223 -46.40640 4649 ft 210 kts 72°
2026-05-06 22:43 -23.40768 -46.39103 5094 ft 223 kts 72°
2026-05-06 22:44 -23.40285 -46.37435 5533 ft 237 kts 72°
2026-05-06 22:44 -23.39691 -46.35698 6017 ft 250 kts 64°
2026-05-06 22:44 -23.38815 -46.34036 6476 ft 263 kts 57°
2026-05-06 22:44 -23.37791 -46.32354 7052 ft 271 kts 56°
2026-05-06 22:45 -23.36725 -46.30608 7701 ft 277 kts 56°
2026-05-06 22:45 -23.35678 -46.28845 8391 ft 280 kts 57°
2026-05-06 22:45 -23.34635 -46.27056 9050 ft 284 kts 57°
2026-05-06 22:45 -23.33567 -46.25218 9467 ft 298 kts 57°
2026-05-06 22:46 -23.32429 -46.23258 9840 ft 313 kts 57°
2026-05-06 22:46 -23.31237 -46.21208 10213 ft 327 kts 57°
2026-05-06 22:46 -23.29993 -46.19066 10514 ft 343 kts 58°
2026-05-06 22:46 -23.28692 -46.16824 10791 ft 358 kts 58°
2026-05-06 22:47 -23.27337 -46.14490 11138 ft 370 kts 58°
2026-05-06 22:47 -23.25946 -46.12095 11648 ft 376 kts 58°
2026-05-06 22:47 -23.24538 -46.09670 12220 ft 379 kts 58°
2026-05-06 22:47 -23.23138 -46.07266 12807 ft 381 kts 58°
2026-05-06 22:48 -23.21542 -46.04926 13321 ft 387 kts 50°
2026-05-06 22:48 -23.19420 -46.03030 13823 ft 396 kts 31°
2026-05-06 22:48 -23.16889 -46.01785 14365 ft 402 kts 22°
2026-05-06 22:48 -23.14214 -46.00847 14915 ft 407 kts 16°
2026-05-06 22:49 -23.11414 -46.00267 15468 ft 413 kts
2026-05-06 22:49 -23.08529 -45.99891 16030 ft 417 kts
2026-05-06 22:49 -23.05601 -45.99595 16566 ft 422 kts
2026-05-06 22:49 -23.02676 -45.99315 17100 ft 426 kts
2026-05-06 22:50 -22.99671 -45.99011 17631 ft 430 kts
2026-05-06 22:50 -22.96684 -45.98687 18139 ft 435 kts
2026-05-06 22:50 -22.93639 -45.98330 18692 ft 438 kts
2026-05-06 22:50 -22.90622 -45.97775 19173 ft 442 kts 14°
2026-05-06 22:51 -22.87636 -45.96705 19701 ft 444 kts 25°
2026-05-06 22:51 -22.84841 -45.95125 20170 ft 448 kts 32°
2026-05-06 22:51 -22.82131 -45.93243 20665 ft 451 kts 36°
2026-05-06 22:51 -22.79556 -45.91291 21134 ft 454 kts 37°
2026-05-06 22:52 -22.76951 -45.89256 21645 ft 457 kts 37°
2026-05-06 22:52 -22.74393 -45.87250 22093 ft 461 kts 37°
2026-05-06 22:52 -22.71743 -45.85183 22538 ft 466 kts 37°
2026-05-06 22:52 -22.69111 -45.83146 22988 ft 469 kts 37°
2026-05-06 22:53 -22.66406 -45.81069 23406 ft 474 kts 37°
2026-05-06 22:53 -22.63716 -45.79018 23807 ft 478 kts 36°
2026-05-06 22:53 -22.60983 -45.76945 24218 ft 482 kts 36°
2026-05-06 22:53 -22.58199 -45.74843 24604 ft 487 kts 36°
2026-05-06 22:54 -22.55424 -45.72754 25000 ft 490 kts 36°
2026-05-06 22:54 -22.52625 -45.70652 25370 ft 495 kts 36°
2026-05-06 22:54 -22.49769 -45.68510 25778 ft 498 kts 36°
2026-05-06 22:54 -22.46923 -45.66378 26171 ft 501 kts 36°
2026-05-06 22:55 -22.44027 -45.64211 26495 ft 506 kts 36°
2026-05-06 22:55 -22.41093 -45.62016 26957 ft 507 kts 36°
2026-05-06 22:55 -22.38175 -45.59835 27506 ft 507 kts 36°
2026-05-06 22:55 -22.35280 -45.57672 27989 ft 507 kts 36°
2026-05-06 22:56 -22.32374 -45.55501 28486 ft 507 kts 36°
2026-05-06 22:56 -22.29451 -45.53318 28923 ft 508 kts 37°
2026-05-06 22:56 -22.26547 -45.51150 29346 ft 509 kts 37°
2026-05-06 22:56 -22.23578 -45.48936 29739 ft 511 kts 37°
2026-05-06 22:57 -22.20658 -45.46757 30147 ft 512 kts 37°
2026-05-06 22:57 -22.17740 -45.44583 30601 ft 512 kts 37°
2026-05-06 22:57 -22.14764 -45.42366 31103 ft 511 kts 37°
2026-05-06 22:57 -22.11800 -45.40160 31534 ft 510 kts 37°
2026-05-06 22:58 -22.08884 -45.37990 31923 ft 511 kts 37°
2026-05-06 22:58 -22.05927 -45.35792 32298 ft 512 kts 37°
2026-05-06 22:58 -22.02974 -45.33588 32672 ft 512 kts 37°
2026-05-06 22:58 -22.00078 -45.31313 33041 ft 511 kts 40°
2026-05-06 22:59 -21.97282 -45.28989 33444 ft 511 kts 41°
2026-05-06 22:59 -21.94478 -45.26590 33829 ft 511 kts 41°
2026-05-06 22:59 -21.91689 -45.24176 34279 ft 510 kts 41°
2026-05-06 22:59 -21.88920 -45.21780 34688 ft 509 kts 41°
2026-05-06 23:00 -21.86097 -45.19347 34966 ft 511 kts 41°
2026-05-06 23:00 -21.83262 -45.16918 35357 ft 510 kts 41°
2026-05-06 23:00 -21.80464 -45.14535 35765 ft 509 kts 41°
2026-05-06 23:00 -21.77692 -45.12186 36029 ft 510 kts 41°
2026-05-06 23:01 -21.74838 -45.09776 36279 ft 511 kts 41°
2026-05-06 23:01 -21.72003 -45.07388 36514 ft 513 kts 41°
2026-05-06 23:01 -21.69177 -45.05011 36810 ft 513 kts 41°
2026-05-06 23:01 -21.66322 -45.02612 37108 ft 513 kts 41°
2026-05-06 23:02 -21.63477 -45.00223 37287 ft 514 kts 41°
2026-05-06 23:02 -21.57675 -44.95357 37274 ft 523 kts 40°
2026-05-06 23:03 -21.51818 -44.90449 37270 ft 531 kts 41°
2026-05-06 23:03 -21.45943 -44.85539 37268 ft 527 kts 41°
2026-05-06 23:04 -21.40061 -44.80626 37270 ft 527 kts 41°
2026-05-06 23:04 -21.34289 -44.75806 37269 ft 528 kts 41°
2026-05-06 23:05 -21.28492 -44.70967 37266 ft 527 kts 41°
2026-05-06 23:05 -21.22671 -44.66111 37264 ft 528 kts 41°
2026-05-06 23:06 -21.16884 -44.61288 37268 ft 529 kts 41°
2026-05-06 23:06 -21.11041 -44.56425 37273 ft 528 kts 41°
2026-05-06 23:07 -21.05230 -44.51593 37270 ft 529 kts 41°
2026-05-06 23:07 -20.99437 -44.46782 37270 ft 527 kts 41°
2026-05-06 23:08 -20.93650 -44.41977 37276 ft 527 kts 41°
2026-05-06 23:08 -20.87856 -44.37177 37282 ft 526 kts 41°
2026-05-06 23:09 -20.81989 -44.32325 37286 ft 527 kts 41°
2026-05-06 23:09 -20.76170 -44.27513 37290 ft 528 kts 41°
2026-05-06 23:10 -20.70393 -44.22741 37288 ft 527 kts 41°
2026-05-06 23:10 -20.64549 -44.17919 37275 ft 528 kts 41°
2026-05-06 23:11 -20.58763 -44.13111 37273 ft 527 kts 41°
2026-05-06 23:11 -20.52985 -44.08242 37271 ft 525 kts 41°
2026-05-06 23:12 -20.47241 -44.03411 37268 ft 526 kts 41°
2026-05-06 23:12 -20.41425 -43.98620 37268 ft 527 kts 41°
2026-05-06 23:13 -20.35590 -43.93867 37266 ft 526 kts 41°
2026-05-06 23:13 -20.29772 -43.89138 37268 ft 527 kts 41°
2026-05-06 23:14 -20.23968 -43.84413 37266 ft 526 kts 41°
2026-05-06 23:14 -20.18316 -43.79807 37267 ft 525 kts 41°
2026-05-06 23:15 -20.13212 -43.75651 37268 ft 524 kts 41°
2026-05-06 23:15 -20.07672 -43.71141 37274 ft 521 kts 41°
2026-05-06 23:16 -20.01891 -43.66440 37270 ft 523 kts 41°
2026-05-06 23:16 -19.96077 -43.61715 37263 ft 521 kts 41°
2026-05-06 23:17 -19.90277 -43.57003 37261 ft 523 kts 41°
2026-05-06 23:17 -19.84458 -43.52279 37258 ft 521 kts 41°
2026-05-06 23:18 -19.78671 -43.47576 37255 ft 521 kts 41°
2026-05-06 23:18 -19.72879 -43.42870 37251 ft 522 kts 41°
2026-05-06 23:19 -19.67099 -43.38178 37250 ft 522 kts 41°
2026-05-06 23:19 -19.61345 -43.33513 37246 ft 522 kts 40°
2026-05-06 23:20 -19.55526 -43.28798 37246 ft 521 kts 41°
2026-05-06 23:20 -19.49757 -43.24126 37243 ft 522 kts 40°
2026-05-06 23:21 -19.43990 -43.19461 37238 ft 522 kts 40°
2026-05-06 23:21 -19.38223 -43.14800 37231 ft 521 kts 41°
2026-05-06 23:22 -19.32408 -43.10104 37223 ft 523 kts 40°
2026-05-06 23:22 -19.26654 -43.05466 37215 ft 521 kts 41°
2026-05-06 23:23 -19.20884 -43.00818 37209 ft 520 kts 41°
2026-05-06 23:23 -19.15131 -42.96186 37210 ft 520 kts 40°
2026-05-06 23:24 -19.09386 -42.91566 37212 ft 520 kts 40°
2026-05-06 23:24 -19.03579 -42.86901 37212 ft 521 kts 40°
2026-05-06 23:25 -18.97854 -42.82309 37211 ft 517 kts 40°
2026-05-06 23:25 -18.92103 -42.77696 37219 ft 520 kts 40°
2026-05-06 23:26 -18.86306 -42.73049 37227 ft 518 kts 40°
2026-05-06 23:26 -18.80604 -42.68481 37240 ft 516 kts 40°
2026-05-06 23:27 -18.74838 -42.63872 37251 ft 517 kts 40°
2026-05-06 23:27 -18.69126 -42.59313 37238 ft 516 kts 41°
2026-05-06 23:28 -18.63363 -42.54713 37236 ft 517 kts 40°
2026-05-06 23:28 -18.57630 -42.50143 37223 ft 515 kts 40°
2026-05-06 23:29 -18.51908 -42.45582 37211 ft 515 kts 40°
2026-05-06 23:29 -18.46205 -42.41041 37210 ft 513 kts 40°
2026-05-06 23:30 -18.40481 -42.36485 37211 ft 516 kts 40°
2026-05-06 23:30 -18.34757 -42.31930 37219 ft 514 kts 40°
2026-05-06 23:31 -18.29068 -42.27409 37219 ft 512 kts 40°
2026-05-06 23:31 -18.23368 -42.22884 37223 ft 514 kts 40°
2026-05-06 23:32 -18.17679 -42.18376 37203 ft 511 kts 40°
2026-05-06 23:32 -18.11968 -42.13853 37195 ft 512 kts 40°
2026-05-06 23:33 -18.06255 -42.09329 37187 ft 514 kts 40°
2026-05-06 23:33 -18.00576 -42.04840 37190 ft 511 kts 39°
2026-05-06 23:34 -17.94871 -42.00335 37188 ft 511 kts 39°
2026-05-06 23:34 -17.89176 -41.95840 37205 ft 510 kts 39°
2026-05-06 23:35 -17.83483 -41.91350 37211 ft 508 kts 39°
2026-05-06 23:35 -17.77834 -41.86895 37222 ft 510 kts 39°
2026-05-06 23:36 -17.72165 -41.82430 37221 ft 510 kts 39°
2026-05-06 23:36 -17.66470 -41.77949 37215 ft 509 kts 39°
2026-05-06 23:37 -17.60809 -41.73497 37210 ft 510 kts 39°
2026-05-06 23:37 -17.55126 -41.69032 37202 ft 508 kts 39°
2026-05-06 23:38 -17.49483 -41.64604 37196 ft 507 kts 39°
2026-05-06 23:38 -17.43805 -41.60200 37197 ft 507 kts 37°
2026-05-06 23:39 -17.37496 -41.56759 37196 ft 510 kts 21°
2026-05-06 23:39 -17.30661 -41.54653 37199 ft 510 kts 14°
2026-05-06 23:40 -17.23686 -41.52998 37204 ft 511 kts 12°
2026-05-06 23:40 -17.16664 -41.51438 37202 ft 510 kts 12°
2026-05-06 23:41 -17.09705 -41.49870 37196 ft 510 kts 12°
2026-05-06 23:41 -17.02710 -41.48268 37201 ft 511 kts 12°
2026-05-06 23:42 -16.95720 -41.46651 37199 ft 510 kts 12°
2026-05-06 23:42 -16.88796 -41.45043 37192 ft 510 kts 12°
2026-05-06 23:43 -16.81808 -41.43419 37197 ft 511 kts 12°
2026-05-06 23:43 -16.74849 -41.41801 37195 ft 511 kts 12°
2026-05-06 23:44 -16.67910 -41.40191 37192 ft 511 kts 12°
2026-05-06 23:44 -16.60946 -41.38569 37186 ft 510 kts 12°
2026-05-06 23:45 -16.54024 -41.36954 37176 ft 510 kts 12°
2026-05-06 23:45 -16.46981 -41.35310 37179 ft 512 kts 12°
2026-05-06 23:46 -16.40001 -41.33683 37189 ft 509 kts 12°
2026-05-06 23:46 -16.32990 -41.32053 37192 ft 510 kts 12°
2026-05-06 23:47 -16.26060 -41.30442 37203 ft 510 kts 12°
2026-05-06 23:47 -16.19089 -41.28822 37206 ft 510 kts 12°
2026-05-06 23:48 -16.12056 -41.27190 37211 ft 510 kts 12°
2026-05-06 23:48 -16.05059 -41.25565 37216 ft 510 kts 12°
2026-05-06 23:49 -15.98127 -41.23957 37213 ft 509 kts 12°
2026-05-06 23:49 -15.91128 -41.22337 37222 ft 510 kts 12°
2026-05-06 23:50 -15.84137 -41.20718 37224 ft 510 kts 12°
2026-05-06 23:50 -15.74913 -41.18581 37233 ft 512 kts 11°
2026-05-06 23:51 -15.70968 -41.17668 37226 ft 512 kts 11°
2026-05-06 23:51 -15.63998 -41.16056 37215 ft 511 kts 11°
2026-05-06 23:52 -15.57006 -41.14439 37203 ft 511 kts 12°
2026-05-06 23:52 -15.50037 -41.12826 37196 ft 511 kts 11°
2026-05-06 23:53 -15.43014 -41.11227 37201 ft 511 kts 10°
2026-05-06 23:53 -15.36032 -41.09792 37208 ft 511 kts
2026-05-06 23:54 -15.28946 -41.08398 37211 ft 512 kts
2026-05-06 23:54 -15.21887 -41.07005 37219 ft 512 kts
2026-05-06 23:55 -15.14887 -41.05607 37218 ft 510 kts
2026-05-06 23:55 -15.07858 -41.04197 37208 ft 512 kts
2026-05-06 23:56 -15.00877 -41.02791 37207 ft 511 kts
2026-05-06 23:56 -14.93878 -41.01380 37200 ft 510 kts
2026-05-06 23:57 -14.86872 -40.99970 37198 ft 513 kts
2026-05-06 23:57 -14.79851 -40.98556 37194 ft 511 kts
2026-05-06 23:58 -14.72796 -40.97138 37188 ft 514 kts
2026-05-06 23:58 -14.65757 -40.95723 37175 ft 513 kts
2026-05-06 23:59 -14.58723 -40.94310 37163 ft 514 kts
2026-05-06 23:59 -14.51683 -40.92896 37149 ft 513 kts
2026-05-07 00:00 -14.44656 -40.91487 37143 ft 514 kts
2026-05-07 00:00 -14.37639 -40.90082 37146 ft 513 kts
2026-05-07 00:01 -14.30588 -40.88670 37146 ft 513 kts
2026-05-07 00:01 -14.23603 -40.87273 37141 ft 513 kts
2026-05-07 00:02 -14.16570 -40.85868 37137 ft 513 kts
2026-05-07 00:02 -14.09512 -40.84457 37142 ft 514 kts
2026-05-07 00:03 -14.02481 -40.83052 37144 ft 513 kts
2026-05-07 00:03 -13.95470 -40.81651 37144 ft 514 kts
2026-05-07 00:04 -13.88388 -40.80239 37144 ft 514 kts
2026-05-07 00:04 -13.81274 -40.78818 37142 ft 513 kts
2026-05-07 00:05 -13.76658 -40.77744 37142 ft 516 kts 12°
2026-05-07 00:05 -13.76194 -40.77613 37143 ft 516 kts 13°
2026-05-07 00:06 -13.71333 -40.75846 37143 ft 521 kts 21°
2026-05-07 00:06 -13.65331 -40.72778 37146 ft 519 kts 28°
2026-05-07 00:07 -13.59156 -40.69104 37150 ft 522 kts 30°
2026-05-07 00:07 -13.52879 -40.65221 37159 ft 520 kts 30°
2026-05-07 00:08 -13.46664 -40.61382 37167 ft 520 kts 30°
2026-05-07 00:08 -13.40405 -40.57557 37180 ft 521 kts 30°
2026-05-07 00:09 -13.34113 -40.53739 37193 ft 519 kts 29°
2026-05-07 00:09 -13.27857 -40.49955 37211 ft 520 kts 29°
2026-05-07 00:10 -13.21598 -40.46178 37198 ft 521 kts 29°
2026-05-07 00:10 -13.15362 -40.42417 37168 ft 520 kts 29°
2026-05-07 00:11 -13.09037 -40.38605 37151 ft 521 kts 29°
2026-05-07 00:11 -13.02776 -40.34832 37142 ft 520 kts 29°
2026-05-07 00:12 -12.96468 -40.31032 37137 ft 520 kts 29°
2026-05-07 00:12 -12.90197 -40.27256 37132 ft 518 kts 29°
2026-05-07 00:13 -12.83868 -40.23448 37123 ft 519 kts 29°
2026-05-07 00:13 -12.77616 -40.19688 37112 ft 520 kts 29°
2026-05-07 00:14 -12.71386 -40.15944 37103 ft 518 kts 29°
2026-05-07 00:14 -12.65093 -40.12163 37102 ft 521 kts 29°
2026-05-07 00:15 -12.58863 -40.08423 37098 ft 520 kts 28°
2026-05-07 00:15 -12.52568 -40.04646 37094 ft 520 kts 28°
2026-05-07 00:16 -12.46323 -40.00902 37098 ft 520 kts 28°
2026-05-07 00:16 -12.40023 -39.97125 37086 ft 520 kts 28°
2026-05-07 00:17 -12.33740 -39.93360 37084 ft 518 kts 28°
2026-05-07 00:17 -12.27443 -39.89592 37084 ft 521 kts 28°
2026-05-07 00:18 -12.21251 -39.85890 37083 ft 516 kts 28°
2026-05-07 00:18 -12.14961 -39.82129 37085 ft 518 kts 28°
2026-05-07 00:19 -12.10060 -39.79201 37080 ft 518 kts 28°
2026-05-07 00:19 -12.03783 -39.75449 37082 ft 518 kts 28°
2026-05-07 00:20 -11.97560 -39.71739 37084 ft 518 kts 28°
2026-05-07 00:20 -11.91266 -39.67984 37087 ft 520 kts 28°
2026-05-07 00:21 -11.84946 -39.64214 37089 ft 518 kts 28°
2026-05-07 00:21 -11.78713 -39.60499 37090 ft 517 kts 28°
2026-05-07 00:22 -11.72463 -39.56773 37086 ft 517 kts 28°
2026-05-07 00:22 -11.66213 -39.53046 37085 ft 517 kts 28°
2026-05-07 00:23 -11.59991 -39.49334 37087 ft 516 kts 28°
2026-05-07 00:23 -11.53748 -39.45613 37089 ft 518 kts 27°
2026-05-07 00:24 -11.47489 -39.41884 37089 ft 518 kts 27°
2026-05-07 00:24 -11.41227 -39.38156 37089 ft 518 kts 28°
2026-05-07 00:25 -11.34992 -39.34445 37086 ft 517 kts 27°
2026-05-07 00:25 -11.28700 -39.30703 37083 ft 517 kts 27°
2026-05-07 00:26 -11.22443 -39.26983 37080 ft 518 kts 27°
2026-05-07 00:26 -11.16187 -39.23268 37077 ft 518 kts 27°
2026-05-07 00:27 -11.09945 -39.19562 37076 ft 518 kts 27°
2026-05-07 00:27 -11.03695 -39.15852 37075 ft 519 kts 27°
2026-05-07 00:28 -10.97466 -39.12159 37072 ft 518 kts 27°
2026-05-07 00:28 -10.91194 -39.08442 37074 ft 517 kts 27°
2026-05-07 00:29 -10.84905 -39.04714 37073 ft 517 kts 27°
2026-05-07 00:31 -10.68191 -38.94814 37082 ft 516 kts 27°
2026-05-07 00:31 -10.62011 -38.91156 37088 ft 514 kts 27°
2026-05-07 00:32 -10.55778 -38.87471 37090 ft 513 kts 27°
2026-05-07 00:32 -10.49614 -38.83829 37090 ft 511 kts 26°
2026-05-07 00:33 -10.43416 -38.80169 37086 ft 512 kts 26°
2026-05-07 00:33 -10.37241 -38.76524 37088 ft 509 kts 27°
2026-05-07 00:34 -10.31086 -38.72890 37091 ft 510 kts 27°
2026-05-07 00:34 -10.24923 -38.69256 37097 ft 509 kts 26°
2026-05-07 00:35 -10.18754 -38.65619 37094 ft 508 kts 26°
2026-05-07 00:35 -10.12596 -38.61989 37094 ft 507 kts 26°
2026-05-07 00:36 -10.06491 -38.58394 37085 ft 507 kts 26°
2026-05-07 00:36 -10.00367 -38.54789 37078 ft 506 kts 26°
2026-05-07 00:37 -9.94250 -38.51188 37074 ft 506 kts 26°
2026-05-07 00:37 -9.88138 -38.47593 37068 ft 505 kts 27°
2026-05-07 00:38 -9.81959 -38.43959 37061 ft 505 kts 27°
2026-05-07 00:38 -9.75882 -38.40385 37055 ft 504 kts 26°
2026-05-07 00:39 -9.69760 -38.36799 37054 ft 502 kts 26°
2026-05-07 00:39 -9.63635 -38.33232 37053 ft 501 kts 26°
2026-05-07 00:40 -9.57525 -38.29682 37051 ft 502 kts 26°
2026-05-07 00:40 -9.51441 -38.26147 37050 ft 500 kts 26°
2026-05-07 00:41 -9.45349 -38.22605 37049 ft 501 kts 26°
2026-05-07 00:41 -9.39288 -38.19078 37051 ft 500 kts 26°
2026-05-07 00:42 -9.33213 -38.15546 37055 ft 501 kts 26°
2026-05-07 00:42 -9.27145 -38.12020 37062 ft 499 kts 26°
2026-05-07 00:43 -9.21103 -38.08511 37072 ft 497 kts 26°
2026-05-07 00:43 -9.15064 -38.05004 37080 ft 497 kts 26°
2026-05-07 00:44 -9.09046 -38.01503 37087 ft 498 kts 26°
2026-05-07 00:44 -9.03060 -37.98005 37097 ft 495 kts 26°
2026-05-07 00:45 -8.97054 -37.94495 37096 ft 496 kts 26°
2026-05-07 00:45 -8.91057 -37.90993 37089 ft 496 kts 26°
2026-05-07 00:46 -8.84980 -37.87449 37083 ft 495 kts 26°
2026-05-07 00:46 -8.78963 -37.83940 37077 ft 494 kts 26°
2026-05-07 00:47 -8.72985 -37.80457 37073 ft 493 kts 26°
2026-05-07 00:47 -8.67004 -37.76973 37072 ft 492 kts 26°
2026-05-07 00:48 -8.61049 -37.73506 37072 ft 492 kts 26°
2026-05-07 00:48 -8.55087 -37.70036 37076 ft 492 kts 26°
2026-05-07 00:49 -8.49115 -37.66562 37077 ft 491 kts 26°
2026-05-07 00:49 -8.43181 -37.63109 37077 ft 489 kts 26°
2026-05-07 00:50 -8.37242 -37.59657 37078 ft 489 kts 26°
2026-05-07 00:50 -8.31328 -37.56220 37081 ft 489 kts 26°
2026-05-07 00:51 -8.25412 -37.52783 37079 ft 488 kts 26°
2026-05-07 00:51 -8.19473 -37.49333 37086 ft 489 kts 26°
2026-05-07 00:52 -8.13588 -37.45916 37098 ft 488 kts 26°
2026-05-07 00:52 -8.07670 -37.42479 37110 ft 488 kts 26°
2026-05-07 00:53 -8.01751 -37.39046 37114 ft 486 kts 26°
2026-05-07 00:53 -7.95897 -37.35651 37112 ft 486 kts 26°
2026-05-07 00:54 -7.90004 -37.32233 37102 ft 485 kts 26°
2026-05-07 00:54 -7.85993 -37.29907 37097 ft 485 kts 26°
2026-05-07 00:55 -7.83552 -37.28493 37096 ft 486 kts 26°
2026-05-07 00:56 -7.78449 -37.25537 37092 ft 486 kts 26°
2026-05-07 00:56 -7.72505 -37.22093 37090 ft 484 kts 26°
2026-05-07 00:57 -7.66653 -37.18704 37088 ft 484 kts 26°
2026-05-07 00:57 -7.60782 -37.15306 37086 ft 484 kts 26°
2026-05-07 00:58 -7.54894 -37.11897 37089 ft 483 kts 26°
2026-05-07 00:58 -7.49026 -37.08501 37084 ft 485 kts 26°
2026-05-07 00:59 -7.40258 -37.03430 37078 ft 483 kts 26°
2026-05-07 01:00 -7.34398 -37.00044 37076 ft 483 kts 26°
2026-05-07 01:00 -7.28539 -36.96657 37075 ft 482 kts 26°
2026-05-07 01:01 -7.22685 -36.93276 37074 ft 483 kts 26°
2026-05-07 01:01 -7.16820 -36.89891 37070 ft 481 kts 26°
2026-05-07 01:02 -7.10999 -36.86532 36972 ft 475 kts 26°
2026-05-07 01:02 -7.08148 -36.84884 36580 ft 468 kts 26°
2026-05-07 01:02 -7.05340 -36.83259 36072 ft 463 kts 26°
2026-05-07 01:02 -7.02546 -36.81643 35441 ft 460 kts 26°
2026-05-07 01:03 -6.99752 -36.80029 34746 ft 459 kts 26°
2026-05-07 01:03 -6.96962 -36.78419 34025 ft 459 kts 26°
2026-05-07 01:03 -6.94189 -36.76817 33293 ft 459 kts 26°
2026-05-07 01:03 -6.91406 -36.75211 32549 ft 459 kts 26°
2026-05-07 01:04 -6.88622 -36.73606 31854 ft 460 kts 26°
2026-05-07 01:04 -6.85816 -36.71987 31357 ft 459 kts 27°
2026-05-07 01:04 -6.82974 -36.70349 30865 ft 472 kts 27°
2026-05-07 01:04 -6.80092 -36.68689 30326 ft 476 kts 27°
2026-05-07 01:05 -6.77193 -36.67016 29778 ft 471 kts 27°
2026-05-07 01:05 -6.74357 -36.65377 29245 ft 466 kts 28°
2026-05-07 01:05 -6.71547 -36.63754 28706 ft 462 kts 28°
2026-05-07 01:05 -6.68776 -36.62153 28186 ft 457 kts 28°
2026-05-07 01:06 -6.67275 -36.61286 27898 ft 455 kts 28°
2026-05-07 01:06 -6.66498 -36.60839 27750 ft 454 kts 28°
2026-05-07 01:06 -6.64070 -36.59341 27274 ft 451 kts 32°
2026-05-07 01:06 -6.62009 -36.57803 26844 ft 449 kts 38°
2026-05-07 01:07 -6.59733 -36.55573 26307 ft 446 kts 46°
2026-05-07 01:07 -6.57749 -36.53217 25781 ft 442 kts 50°
2026-05-07 01:07 -6.55901 -36.50820 25268 ft 438 kts 51°
2026-05-07 01:07 -6.54095 -36.48387 24755 ft 434 kts 52°
2026-05-07 01:08 -6.52294 -36.45932 24232 ft 429 kts 52°
2026-05-07 01:08 -6.50519 -36.43511 23706 ft 425 kts 51°
2026-05-07 01:08 -6.48773 -36.41138 23194 ft 421 kts 51°
2026-05-07 01:08 -6.47019 -36.38767 22670 ft 416 kts 51°
2026-05-07 01:09 -6.45299 -36.36452 22156 ft 412 kts 51°
2026-05-07 01:09 -6.43574 -36.34140 21635 ft 407 kts 51°
2026-05-07 01:09 -6.41889 -36.31891 21128 ft 403 kts 51°
2026-05-07 01:09 -6.40199 -36.29638 20617 ft 399 kts 51°
2026-05-07 01:10 -6.38535 -36.27425 20114 ft 395 kts 51°
2026-05-07 01:10 -6.36888 -36.25235 19610 ft 391 kts 51°
2026-05-07 01:10 -6.35260 -36.23073 19112 ft 387 kts 52°
2026-05-07 01:10 -6.33642 -36.20924 18611 ft 383 kts 52°
2026-05-07 01:11 -6.32041 -36.18796 18105 ft 379 kts 52°
2026-05-07 01:11 -6.30446 -36.16677 17598 ft 375 kts 52°
2026-05-07 01:11 -6.28879 -36.14594 17111 ft 372 kts 53°
2026-05-07 01:11 -6.27328 -36.12535 16631 ft 368 kts 53°
2026-05-07 01:12 -6.25784 -36.10485 16141 ft 365 kts 53°
2026-05-07 01:12 -6.24251 -36.08451 15644 ft 362 kts 53°
2026-05-07 01:12 -6.22745 -36.06453 15159 ft 358 kts 54°
2026-05-07 01:12 -6.21250 -36.04470 14674 ft 355 kts 54°
2026-05-07 01:13 -6.19763 -36.02497 14190 ft 352 kts 54°
2026-05-07 01:13 -6.18290 -36.00544 13716 ft 348 kts 54°
2026-05-07 01:13 -6.16839 -35.98620 13238 ft 345 kts 55°
2026-05-07 01:13 -6.15393 -35.96703 12758 ft 341 kts 54°
2026-05-07 01:14 -6.13968 -35.94814 12296 ft 338 kts 54°
2026-05-07 01:14 -6.12554 -35.92939 11837 ft 334 kts 54°
2026-05-07 01:14 -6.11150 -35.91076 11377 ft 331 kts 54°
2026-05-07 01:14 -6.09765 -35.89240 10927 ft 328 kts 54°
2026-05-07 01:15 -6.08399 -35.87429 10503 ft 323 kts 54°
2026-05-07 01:15 -6.07062 -35.85657 10255 ft 313 kts 54°
2026-05-07 01:15 -6.05765 -35.83940 10149 ft 299 kts 54°
2026-05-07 01:15 -6.04520 -35.82290 9901 ft 292 kts 54°
2026-05-07 01:16 -6.03289 -35.80658 9494 ft 291 kts 54°
2026-05-07 01:16 -6.02088 -35.79064 9124 ft 288 kts 54°
2026-05-07 01:16 -6.00878 -35.77461 8758 ft 286 kts 54°
2026-05-07 01:16 -5.99695 -35.75893 8397 ft 283 kts 54°
2026-05-07 01:17 -5.98495 -35.74304 8030 ft 281 kts 54°
2026-05-07 01:17 -5.97312 -35.72738 7665 ft 279 kts 54°
2026-05-07 01:17 -5.96147 -35.71194 7306 ft 276 kts 54°
2026-05-07 01:17 -5.94989 -35.69670 6989 ft 273 kts 53°
2026-05-07 01:18 -5.93802 -35.68175 6587 ft 273 kts 52°
2026-05-07 01:18 -5.92598 -35.66705 6220 ft 271 kts 52°
2026-05-07 01:18 -5.91402 -35.65251 5876 ft 269 kts 53°
2026-05-07 01:18 -5.90225 -35.63810 5534 ft 267 kts 53°
2026-05-07 01:19 -5.89053 -35.62372 5343 ft 259 kts 53°
2026-05-07 01:19 -5.87949 -35.61016 5256 ft 247 kts 53°
2026-05-07 01:19 -5.86882 -35.59708 5176 ft 236 kts 53°
2026-05-07 01:19 -5.85855 -35.58448 5100 ft 225 kts 54°
2026-05-07 01:20 -5.84884 -35.57257 5035 ft 218 kts 53°
2026-05-07 01:20 -5.83813 -35.56211 4924 ft 212 kts 37°
2026-05-07 01:20 -5.82397 -35.55711 4675 ft 217 kts 12°
2026-05-07 01:20 -5.80899 -35.55557 4405 ft 217 kts
2026-05-07 01:21 -5.79387 -35.55374 4147 ft 216 kts 12°
2026-05-07 01:21 -5.77907 -35.55139 3895 ft 215 kts 13°
2026-05-07 01:21 -5.76451 -35.54870 3727 ft 208 kts 19°
2026-05-07 01:21 -5.75181 -35.54290 3546 ft 194 kts 46°
2026-05-07 01:22 -5.74542 -35.53188 3320 ft 181 kts 81°
2026-05-07 01:22 -5.74471 -35.51938 3004 ft 179 kts 98°
2026-05-07 01:22 -5.74655 -35.50709 2766 ft 176 kts 103°
2026-05-07 01:22 -5.74878 -35.49497 2529 ft 171 kts 102°
2026-05-07 01:23 -5.75052 -35.48363 2302 ft 162 kts 102°
2026-05-07 01:23 -5.75228 -35.47258 2095 ft 160 kts 104°
2026-05-07 01:23 -5.75425 -35.46166 1888 ft 159 kts 102°
2026-05-07 01:23 -5.75584 -35.45103 1695 ft 153 kts 102°
2026-05-07 01:24 -5.75770 -35.44053 1478 ft 152 kts 105°
2026-05-07 01:24 -5.75948 -35.43007 1297 ft 150 kts 101°
2026-05-07 01:24 -5.76088 -35.41965 1092 ft 150 kts 104°
2026-05-07 01:24 -5.76290 -35.40934 896 ft 150 kts 103°
2026-05-07 01:25 -5.76411 -35.39895 706 ft 150 kts 99°
2026-05-07 01:25 -5.76651 -35.38892 520 ft 148 kts 108°
2026-05-07 01:25 -5.76946 -35.37866 915 ft 150 kts 108°
2026-05-07 01:25 -5.77087 -35.36818 1517 ft 163 kts 91°
2026-05-07 01:26 -5.77066 -35.35638 2107 ft 175 kts 101°
2026-05-07 01:26 -5.77267 -35.34409 2785 ft 185 kts 95°
2026-05-07 01:26 -5.76880 -35.33136 3337 ft 207 kts 57°
2026-05-07 01:26 -5.75638 -35.32309 3503 ft 226 kts 19°
2026-05-07 01:27 -5.74040 -35.32296 3485 ft 230 kts 355°
2026-05-07 01:27 -5.72492 -35.32778 3482 ft 243 kts 330°
2026-05-07 01:27 -5.71294 -35.34124 3486 ft 268 kts 297°
2026-05-07 01:27 -5.70651 -35.35866 3481 ft 271 kts 285°
2026-05-07 01:28 -5.70104 -35.37708 3480 ft 272 kts 286°
2026-05-07 01:28 -5.69503 -35.39487 3481 ft 272 kts 289°
2026-05-07 01:28 -5.68817 -35.41289 3481 ft 274 kts 290°
2026-05-07 01:28 -5.68110 -35.43061 3482 ft 274 kts 291°
2026-05-07 01:29 -5.67396 -35.44839 3482 ft 272 kts 291°
2026-05-07 01:29 -5.66681 -35.46630 3483 ft 275 kts 291°
2026-05-07 01:29 -5.65976 -35.48404 3483 ft 274 kts 290°
2026-05-07 01:29 -5.65273 -35.50179 3484 ft 273 kts 291°
2026-05-07 01:30 -5.64561 -35.51976 3485 ft 275 kts 291°
2026-05-07 01:30 -5.63891 -35.53762 3481 ft 269 kts 284°
2026-05-07 01:30 -5.63849 -35.55619 3484 ft 272 kts 254°
2026-05-07 01:30 -5.64650 -35.57275 3484 ft 257 kts 229°
2026-05-07 01:31 -5.65860 -35.58467 3483 ft 233 kts 214°
2026-05-07 01:31 -5.67179 -35.59297 3483 ft 212 kts 197°
2026-05-07 01:31 -5.68589 -35.59561 3486 ft 205 kts 176°
2026-05-07 01:31 -5.70004 -35.59416 3485 ft 202 kts 165°
2026-05-07 01:32 -5.71329 -35.58963 3483 ft 200 kts 149°
2026-05-07 01:32 -5.72408 -35.58101 3487 ft 199 kts 132°
2026-05-07 01:32 -5.73241 -35.57001 3483 ft 197 kts 121°
2026-05-07 01:32 -5.73756 -35.55725 3480 ft 196 kts 105°
2026-05-07 01:33 -5.74023 -35.54422 3455 ft 182 kts 103°
2026-05-07 01:33 -5.74258 -35.53188 3251 ft 179 kts 102°
2026-05-07 01:33 -5.74466 -35.51963 3012 ft 177 kts 101°
2026-05-07 01:33 -5.74662 -35.50748 2777 ft 176 kts 101°
2026-05-07 01:34 -5.74859 -35.49554 2547 ft 169 kts 103°
2026-05-07 01:34 -5.75045 -35.48432 2326 ft 161 kts 101°
2026-05-07 01:34 -5.75225 -35.47322 2107 ft 162 kts 103°
2026-05-07 01:34 -5.75400 -35.46230 1921 ft 158 kts 101°
2026-05-07 01:35 -5.75580 -35.45142 1694 ft 155 kts 101°
2026-05-07 01:35 -5.75761 -35.44101 1490 ft 152 kts 103°
2026-05-07 01:35 -5.75938 -35.43052 1300 ft 151 kts 102°
2026-05-07 01:35 -5.76077 -35.42028 1115 ft 148 kts 102°
2026-05-07 01:36 -5.76249 -35.41007 931 ft 146 kts 102°
2026-05-07 01:36 -5.76430 -35.39983 713 ft 149 kts 100°
2026-05-07 01:36 -5.76607 -35.38955 505 ft 149 kts 102°
2026-05-07 01:36 -5.76779 -35.37926 334 ft 148 kts 99°
2026-05-07 01:37 -5.76938 -35.36950 291 ft 119 kts 98°
2026-05-07 01:37 -5.77028 -35.36388 291 ft 52 kts 99°
2026-05-07 01:37 -5.77029 -35.36162 291 ft 21 kts 77°
2026-05-07 01:37 -5.76983 -35.36056 291 ft 14 kts 62°
2026-05-07 01:38 -5.76934 -35.36016 291 ft 6 kts 344°
2026-05-07 01:38 -5.76903 -35.36071 291 ft 12 kts 280°
2026-05-07 01:38 -5.76886 -35.36170 291 ft 16 kts 279°
2026-05-07 01:38 -5.76865 -35.36305 291 ft 21 kts 280°
2026-05-07 01:39 -5.76838 -35.36471 291 ft 26 kts 278°
2026-05-07 01:39 -5.76806 -35.36671 291 ft 31 kts 279°
2026-05-07 01:39 -5.76773 -35.36883 291 ft 31 kts 279°
2026-05-07 01:39 -5.76742 -35.37076 291 ft 26 kts 278°
2026-05-07 01:40 -5.76712 -35.37235 291 ft 14 kts 299°
2026-05-07 01:40 -5.76607 -35.37248 291 ft 16 kts
2026-05-07 01:40 -5.76535 -35.37257 291 ft 10 kts 313°
2026-05-07 01:40 -5.76508 -35.37313 291 ft 6 kts 339°
2026-05-07 01:41 -5.76462 -35.37310 291 ft 5 kts
2026-05-07 01:41 -5.76446 -35.37307 291 ft 0 kts